START_TIME,STEP,MOV.,AL01,t_acc.,AL02,t_acc.,E37,t_acc.,H21,t_acc.
1981-08-30 09:00:34.850 ,6,1,0.,24.0,0.,24.0,1.,24.0,0.,24.0
1981-08-30 09:00:58.850 ,7,1,5.,24.0,0.,24.0,0.,24.0,0.,24.0
1981-08-30 09:01:22.850 ,7,1,32.,24.0,0.,24.0,0.,24.0,0.,24.0
1981-08-30 09:01:46.850 ,6,1,27.,24.0,0.,24.0,0.,24.0,0.,24.0
1981-08-30 09:02:10.850 ,5,1,0.,24.0,0.,24.0,0.,24.0,0.,24.0
1981-08-30 09:02:34.850 ,4,1,0.,24.0,0.,24.0,0.,24.0,0.,24.0
1981-08-30 09:02:58.850 ,3,1,1.,24.0,0.,24.0,0.,24.0,0.,24.0
1981-08-30 09:03:22.850 ,2,1,0.,24.0,0.,24.0,0.,24.0,0.,24.0
1981-08-30 09:03:46.850 ,1,1,0.,24.0,0.,24.0,0.,24.0,0.,24.0
1981-08-30 09:04:10.850 ,0,1,1.,24.0,1.,24.0,1.,24.0,0.,24.0
1981-08-30 09:04:34.850 ,0,1,0.,24.0,0.,24.0,1.,24.0,0.,24.0
1981-08-30 09:04:58.850 ,1,1,0.,24.0,0.,24.0,0.,24.0,0.,24.0
1981-08-30 09:05:22.850 ,2,1,0.,24.0,0.,24.0,0.,24.0,0.,24.0
1981-08-30 09:05:46.850 ,3,1,0.,24.0,0.,24.0,2.,24.0,0.,24.0
1981-08-30 09:06:10.850 ,3,0,0.,24.0,0.,24.0,1.,24.0,0.,24.0
1981-08-30 09:06:34.850 ,4,1,0.,24.0,1.,24.0,0.,24.0,0.,24.0
1981-08-30 09:06:58.850 ,4,0,0.,24.0,0.,24.0,0.,24.0,0.,24.0
1981-08-30 09:07:22.850 ,5,1,0.,24.0,0.,24.0,0.,24.0,0.,24.0
1981-08-30 09:07:46.850 ,5,0,0.,24.0,0.,24.0,0.,24.0,0.,24.0
1981-08-30 09:08:10.850 ,6,1,0.,24.0,0.,24.0,1.,24.0,0.,24.0
1981-08-30 09:08:34.850 ,6,0,0.,24.0,0.,24.0,0.,24.0,0.,24.0
1981-08-30 09:08:58.850 ,7,1,7.,24.0,0.,24.0,0.,24.0,0.,24.0
1981-08-30 09:09:22.850 ,7,0,23.,24.0,0.,24.0,0.,24.0,0.,24.0
1981-08-30 09:09:46.850 ,7,1,28.,24.0,0.,24.0,0.,24.0,0.,24.0
1981-08-30 09:10:10.850 ,7,0,34.,24.0,0.,24.0,0.,24.0,0.,24.0
1981-08-30 09:10:34.850 ,6,1,30.,24.0,0.,24.0,0.,24.0,0.,24.0
1981-08-30 09:10:58.850 ,6,0,0.,24.0,0.,24.0,0.,24.0,0.,24.0
1981-08-30 09:11:22.850 ,5,1,0.,24.0,1.,24.0,0.,24.0,0.,24.0
1981-08-30 09:11:46.850 ,5,0,0.,24.0,0.,24.0,0.,24.0,0.,24.0
1981-08-30 09:12:10.850 ,4,1,0.,24.0,0.,24.0,0.,24.0,0.,24.0
1981-08-30 09:12:34.850 ,4,0,0.,24.0,0.,24.0,0.,24.0,0.,24.0
1981-08-30 09:12:58.850 ,3,1,0.,24.0,0.,24.0,0.,24.0,0.,24.0
1981-08-30 09:13:22.850 ,3,0,0.,24.0,0.,24.0,0.,24.0,0.,24.0
1981-08-30 09:13:46.850 ,2,1,0.,24.0,0.,24.0,0.,24.0,0.,24.0
1981-08-30 09:14:10.850 ,2,0,0.,24.0,0.,24.0,0.,24.0,0.,24.0
1981-08-30 09:14:34.850 ,1,1,0.,24.0,0.,24.0,1.,24.0,0.,24.0
1981-08-30 09:14:58.850 ,1,0,0.,24.0,0.,24.0,0.,24.0,0.,24.0
1981-08-30 09:15:22.850 ,0,1,0.,24.0,0.,24.0,2.,24.0,0.,24.0
1981-08-30 09:15:46.850 ,0,0,1.,24.0,0.,24.0,0.,24.0,0.,24.0
1981-08-30 09:16:10.850 ,0,1,0.,24.0,0.,24.0,0.,24.0,0.,24.0
1981-08-30 09:16:34.850 ,0,0,0.,24.0,0.,24.0,0.,24.0,0.,24.0
1981-08-30 09:16:58.840 ,1,1,0.,24.0,0.,24.0,0.,24.0,0.,24.0
1981-08-30 09:17:22.850 ,1,0,0.,24.0,0.,24.0,1.,24.0,0.,24.0
1981-08-30 09:17:46.850 ,2,1,0.,24.0,0.,24.0,0.,24.0,0.,24.0
1981-08-30 09:18:10.850 ,2,0,0.,24.0,0.,24.0,0.,24.0,0.,24.0
1981-08-30 09:18:34.850 ,3,1,0.,24.0,0.,24.0,1.,24.0,0.,24.0
1981-08-30 09:18:58.850 ,4,1,0.,24.0,0.,24.0,0.,24.0,0.,24.0
1981-08-30 09:19:22.850 ,5,1,0.,24.0,0.,24.0,0.,24.0,0.,24.0
1981-08-30 09:19:46.850 ,6,1,0.,24.0,0.,24.0,0.,24.0,0.,24.0
1981-08-30 09:20:10.850 ,7,1,6.,24.0,0.,24.0,0.,24.0,0.,24.0
1981-08-30 09:20:34.850 ,7,1,30.,24.0,0.,24.0,0.,24.0,0.,24.0
1981-08-30 09:20:58.850 ,6,1,29.,24.0,0.,24.0,0.,24.0,0.,24.0
1981-08-30 09:21:22.850 ,5,1,0.,24.0,0.,24.0,0.,24.0,0.,24.0
1981-08-30 09:21:46.850 ,4,1,0.,24.0,0.,24.0,0.,24.0,0.,24.0
1981-08-30 09:22:10.850 ,3,1,0.,24.0,0.,24.0,0.,24.0,0.,24.0
1981-08-30 09:22:34.850 ,2,1,0.,24.0,0.,24.0,0.,24.0,0.,24.0
1981-08-30 09:22:58.850 ,1,1,0.,24.0,0.,24.0,0.,24.0,0.,24.0
1981-08-30 09:23:22.850 ,0,1,0.,24.0,0.,24.0,1.,24.0,0.,24.0
1981-08-30 09:23:46.850 ,0,1,0.,24.0,0.,24.0,0.,24.0,0.,24.0
1981-08-30 09:24:10.850 ,1,1,0.,24.0,0.,24.0,0.,24.0,0.,24.0
1981-08-30 09:24:34.850 ,2,1,0.,24.0,0.,24.0,0.,24.0,0.,24.0
1981-08-30 09:24:58.850 ,3,1,1.,24.0,0.,24.0,1.,24.0,0.,24.0
1981-08-30 09:25:22.850 ,3,0,0.,24.0,0.,24.0,0.,24.0,0.,24.0
1981-08-30 09:25:46.850 ,4,1,0.,24.0,0.,24.0,0.,24.0,0.,24.0
1981-08-30 09:26:10.850 ,4,0,0.,24.0,0.,24.0,0.,24.0,0.,24.0
1981-08-30 09:26:34.850 ,5,1,0.,24.0,0.,24.0,1.,24.0,0.,24.0
1981-08-30 09:26:58.850 ,5,0,0.,24.0,0.,24.0,0.,24.0,0.,24.0
1981-08-30 09:27:22.850 ,6,1,0.,24.0,0.,24.0,0.,24.0,0.,24.0
1981-08-30 09:27:46.850 ,6,0,0.,24.0,0.,24.0,0.,24.0,0.,24.0
1981-08-30 09:28:10.850 ,7,1,5.,24.0,0.,24.0,0.,24.0,0.,24.0
1981-08-30 09:28:34.850 ,7,0,24.,24.0,0.,24.0,1.,24.0,0.,24.0
1981-08-30 09:28:58.850 ,7,1,35.,24.0,0.,24.0,0.,24.0,0.,24.0
1981-08-30 09:29:22.850 ,7,0,35.,24.0,0.,24.0,2.,24.0,0.,24.0
1981-08-30 09:29:46.850 ,6,1,19.,24.0,0.,24.0,0.,24.0,0.,24.0
1981-08-30 09:30:10.850 ,6,0,0.,24.0,0.,24.0,0.,24.0,0.,24.0
1981-08-30 09:30:34.850 ,5,1,0.,24.0,0.,24.0,0.,24.0,0.,24.0
1981-08-30 09:30:58.850 ,5,0,0.,24.0,0.,24.0,0.,24.0,0.,24.0
1981-08-30 09:31:22.850 ,4,1,0.,24.0,0.,24.0,0.,24.0,0.,24.0
1981-08-30 09:31:46.850 ,4,0,0.,24.0,0.,24.0,0.,24.0,0.,24.0
1981-08-30 09:32:10.850 ,3,1,0.,24.0,0.,24.0,1.,24.0,0.,24.0
1981-08-30 09:32:34.850 ,3,0,0.,24.0,0.,24.0,0.,24.0,0.,24.0
1981-08-30 09:32:58.850 ,2,1,0.,24.0,0.,24.0,1.,24.0,0.,24.0
1981-08-30 09:33:22.850 ,2,0,0.,24.0,0.,24.0,0.,24.0,0.,24.0
1981-08-30 09:33:46.840 ,1,1,1.,24.0,0.,24.0,0.,24.0,0.,24.0
1981-08-30 09:34:10.840 ,1,0,0.,24.0,0.,24.0,0.,24.0,0.,24.0
1981-08-30 09:34:34.840 ,0,1,0.,24.0,0.,24.0,1.,24.0,0.,24.0
1981-08-30 09:34:58.840 ,0,0,0.,24.0,0.,24.0,0.,24.0,0.,24.0
1981-08-30 09:35:22.840 ,0,1,0.,24.0,0.,24.0,0.,24.0,0.,24.0
1981-08-30 09:35:46.840 ,0,0,0.,24.0,0.,24.0,0.,24.0,0.,24.0
1981-08-30 09:36:10.840 ,1,1,0.,24.0,0.,24.0,0.,24.0,0.,24.0
1981-08-30 09:36:34.840 ,1,0,0.,24.0,0.,24.0,0.,24.0,0.,24.0
1981-08-30 09:36:58.840 ,2,1,0.,24.0,0.,24.0,0.,24.0,0.,24.0
1981-08-30 09:37:22.840 ,2,0,0.,24.0,0.,24.0,2.,24.0,0.,24.0
1981-08-30 09:37:46.840 ,3,1,0.,24.0,0.,24.0,2.,24.0,0.,24.0
1981-08-30 09:38:10.840 ,4,1,0.,24.0,0.,24.0,1.,24.0,0.,24.0
1981-08-30 09:38:34.840 ,5,1,0.,24.0,0.,24.0,0.,24.0,0.,24.0
1981-08-30 09:38:58.840 ,6,1,0.,24.0,1.,24.0,0.,24.0,0.,24.0
1981-08-30 09:39:22.840 ,7,1,8.,24.0,0.,24.0,1.,24.0,0.,24.0
1981-08-30 09:39:46.840 ,7,1,28.,24.0,1.,24.0,0.,24.0,0.,24.0
1981-08-30 09:40:10.840 ,6,1,32.,24.0,0.,24.0,0.,24.0,0.,24.0
1981-08-30 09:40:34.840 ,5,1,0.,24.0,0.,24.0,0.,24.0,0.,24.0
1981-08-30 09:40:58.840 ,4,1,0.,24.0,0.,24.0,0.,24.0,0.,24.0
1981-08-30 09:41:22.840 ,3,1,0.,24.0,0.,24.0,0.,24.0,0.,24.0
1981-08-30 09:41:46.840 ,2,1,1.,24.0,0.,24.0,0.,24.0,0.,24.0
1981-08-30 09:42:10.840 ,1,1,0.,24.0,0.,24.0,0.,24.0,0.,24.0
1981-08-30 09:42:34.840 ,0,1,0.,24.0,0.,24.0,0.,24.0,0.,24.0
1981-08-30 09:42:58.840 ,0,1,0.,24.0,0.,24.0,0.,24.0,0.,24.0
1981-08-30 09:43:22.840 ,1,1,0.,24.0,0.,24.0,1.,24.0,0.,24.0
1981-08-30 09:43:46.840 ,2,1,0.,24.0,0.,24.0,0.,24.0,0.,24.0
1981-08-30 09:44:10.840 ,3,1,0.,24.0,0.,24.0,0.,24.0,0.,24.0
1981-08-30 09:44:34.840 ,3,0,0.,24.0,0.,24.0,2.,24.0,0.,24.0
1981-08-30 09:44:58.840 ,4,1,1.,24.0,0.,24.0,0.,24.0,0.,24.0
1981-08-30 09:45:22.840 ,4,0,0.,24.0,0.,24.0,0.,24.0,0.,24.0
1981-08-30 09:45:46.840 ,5,1,0.,24.0,0.,24.0,1.,24.0,0.,24.0
1981-08-30 09:46:10.840 ,5,0,0.,24.0,0.,24.0,0.,24.0,0.,24.0
1981-08-30 09:46:34.840 ,6,1,0.,24.0,0.,24.0,0.,24.0,0.,24.0
1981-08-30 09:46:58.840 ,6,0,0.,24.0,0.,24.0,0.,24.0,0.,24.0
1981-08-30 09:47:22.840 ,7,1,8.,24.0,0.,24.0,0.,24.0,0.,24.0
1981-08-30 09:47:46.840 ,7,0,25.,24.0,0.,24.0,0.,24.0,0.,24.0
1981-08-30 09:48:10.840 ,7,1,26.,24.0,1.,24.0,0.,24.0,0.,24.0
1981-08-30 09:48:34.840 ,7,0,26.,24.0,0.,24.0,0.,24.0,0.,24.0
1981-08-30 09:48:58.840 ,6,1,25.,24.0,0.,24.0,0.,24.0,0.,24.0
1981-08-30 09:49:22.840 ,6,0,0.,24.0,0.,24.0,0.,24.0,0.,24.0
1981-08-30 09:49:46.840 ,5,1,0.,24.0,0.,24.0,1.,24.0,0.,24.0
1981-08-30 09:50:10.840 ,5,0,0.,24.0,0.,24.0,0.,24.0,0.,24.0
1981-08-30 09:50:34.840 ,4,1,0.,24.0,0.,24.0,0.,24.0,0.,24.0
1981-08-30 09:50:58.840 ,4,0,0.,24.0,0.,24.0,0.,24.0,0.,24.0
1981-08-30 09:51:22.840 ,3,1,0.,24.0,0.,24.0,0.,24.0,0.,24.0
1981-08-30 09:51:46.840 ,3,0,0.,24.0,0.,24.0,0.,24.0,0.,24.0
1981-08-30 09:52:10.840 ,2,1,0.,24.0,0.,24.0,0.,24.0,0.,24.0
1981-08-30 09:52:34.840 ,2,0,0.,24.0,0.,24.0,1.,24.0,0.,24.0
1981-08-30 09:52:58.840 ,1,1,0.,24.0,0.,24.0,0.,24.0,0.,24.0
1981-08-30 09:53:22.840 ,1,0,0.,24.0,0.,24.0,0.,24.0,0.,24.0
1981-08-30 09:53:46.840 ,0,1,0.,24.0,0.,24.0,0.,24.0,0.,24.0
1981-08-30 09:54:10.840 ,0,0,0.,24.0,0.,24.0,0.,24.0,0.,24.0
1981-08-30 09:54:34.840 ,0,1,0.,24.0,0.,24.0,1.,24.0,0.,24.0
1981-08-30 09:54:58.840 ,0,0,0.,24.0,0.,24.0,0.,24.0,0.,24.0
1981-08-30 09:55:22.840 ,1,1,0.,24.0,0.,24.0,1.,24.0,0.,24.0
1981-08-30 09:55:46.840 ,1,0,0.,24.0,0.,24.0,0.,24.0,0.,24.0
1981-08-30 09:56:10.840 ,2,1,0.,24.0,0.,24.0,1.,24.0,0.,24.0
1981-08-30 09:56:34.840 ,2,0,0.,24.0,0.,24.0,0.,24.0,0.,24.0
1981-08-30 09:56:58.840 ,3,1,0.,24.0,0.,24.0,0.,24.0,0.,24.0
1981-08-30 09:57:22.840 ,4,1,0.,24.0,0.,24.0,1.,24.0,0.,24.0
1981-08-30 09:57:46.840 ,5,1,0.,24.0,0.,24.0,0.,24.0,0.,24.0
1981-08-30 09:58:10.840 ,6,1,0.,24.0,0.,24.0,0.,24.0,0.,24.0
1981-08-30 09:58:34.840 ,7,1,11.,24.0,0.,24.0,0.,24.0,0.,24.0
1981-08-30 09:58:58.840 ,7,1,36.,24.0,0.,24.0,0.,24.0,0.,24.0
1981-08-30 09:59:22.840 ,6,1,21.,24.0,0.,24.0,0.,24.0,0.,24.0
1981-08-30 09:59:46.840 ,5,1,0.,24.0,0.,24.0,2.,24.0,0.,24.0
1981-08-30 10:00:10.840 ,4,1,0.,24.0,0.,24.0,0.,24.0,0.,24.0
1981-08-30 10:00:34.840 ,3,1,0.,24.0,0.,24.0,0.,24.0,0.,24.0
1981-08-30 10:00:58.840 ,2,1,0.,24.0,0.,24.0,0.,24.0,0.,24.0
1981-08-30 10:01:22.840 ,1,1,0.,24.0,0.,24.0,0.,24.0,0.,24.0
1981-08-30 10:01:46.840 ,0,1,0.,24.0,0.,24.0,0.,24.0,0.,24.0
1981-08-30 10:02:10.840 ,0,1,0.,24.0,0.,24.0,0.,24.0,0.,24.0
1981-08-30 10:02:34.840 ,1,1,0.,24.0,0.,24.0,1.,24.0,0.,24.0
1981-08-30 10:02:58.840 ,2,1,0.,24.0,0.,24.0,0.,24.0,0.,24.0
1981-08-30 10:03:22.840 ,3,1,0.,24.0,0.,24.0,0.,24.0,0.,24.0
1981-08-30 10:03:46.840 ,3,0,0.,24.0,0.,24.0,1.,24.0,0.,24.0
1981-08-30 10:04:10.840 ,4,1,0.,24.0,0.,24.0,2.,24.0,0.,24.0
1981-08-30 10:04:34.840 ,4,0,0.,24.0,0.,24.0,0.,24.0,0.,24.0
1981-08-30 10:04:58.840 ,5,1,0.,24.0,0.,24.0,0.,24.0,0.,24.0
1981-08-30 10:05:22.840 ,5,0,0.,24.0,0.,24.0,0.,24.0,0.,24.0
1981-08-30 10:05:46.840 ,6,1,0.,24.0,0.,24.0,0.,24.0,0.,24.0
1981-08-30 10:06:10.840 ,6,0,0.,24.0,0.,24.0,0.,24.0,0.,24.0
1981-08-30 10:06:34.840 ,7,1,8.,24.0,0.,24.0,0.,24.0,0.,24.0
1981-08-30 10:06:58.840 ,7,0,24.,24.0,0.,24.0,0.,24.0,0.,24.0
1981-08-30 10:07:22.840 ,7,1,29.,24.0,0.,24.0,0.,24.0,0.,24.0
1981-08-30 10:07:46.840 ,7,0,35.,24.0,0.,24.0,0.,24.0,0.,24.0
1981-08-30 10:08:10.840 ,6,1,16.,24.0,0.,24.0,0.,24.0,0.,24.0
1981-08-30 10:08:34.840 ,6,0,0.,24.0,0.,24.0,1.,24.0,0.,24.0
1981-08-30 10:08:58.840 ,5,1,0.,24.0,0.,24.0,0.,24.0,0.,24.0
1981-08-30 10:09:22.840 ,5,0,0.,24.0,0.,24.0,0.,24.0,0.,24.0
1981-08-30 10:09:46.840 ,4,1,0.,24.0,0.,24.0,0.,24.0,0.,24.0
1981-08-30 10:10:10.840 ,4,0,0.,24.0,0.,24.0,0.,24.0,0.,24.0
1981-08-30 10:10:34.840 ,3,1,0.,24.0,0.,24.0,1.,24.0,0.,24.0
1981-08-30 10:10:58.840 ,3,0,0.,24.0,0.,24.0,1.,24.0,0.,24.0
1981-08-30 10:11:22.840 ,2,1,0.,24.0,0.,24.0,0.,24.0,0.,24.0
1981-08-30 10:11:46.840 ,2,0,0.,24.0,0.,24.0,0.,24.0,0.,24.0
1981-08-30 10:12:10.840 ,1,1,0.,24.0,0.,24.0,0.,24.0,0.,24.0
1981-08-30 10:12:34.840 ,0,0,0.,24.0,0.,24.0,0.,24.0,0.,24.0
1981-08-30 10:16:32.440 ,0,0,,0,,0,,0,,0
1981-08-30 10:16:34.840 ,0,0,0.,24.0,0.,24.0,0.,24.0,0.,24.0
1981-08-30 10:16:58.840 ,5,1,0.,24.0,0.,24.0,0.,24.0,0.,24.0
1981-08-30 10:17:22.840 ,6,1,0.,24.0,0.,24.0,0.,24.0,0.,24.0
1981-08-30 10:17:46.840 ,7,1,5.,24.0,0.,24.0,0.,24.0,0.,24.0
1981-08-30 10:18:10.840 ,7,1,36.,24.0,0.,24.0,0.,24.0,0.,24.0
1981-08-30 10:18:34.840 ,6,1,27.,24.0,0.,24.0,0.,24.0,0.,24.0
1981-08-30 10:18:58.840 ,5,1,0.,24.0,0.,24.0,0.,24.0,0.,24.0
1981-08-30 10:19:22.840 ,4,1,0.,24.0,0.,24.0,0.,24.0,0.,24.0
1981-08-30 10:19:46.840 ,3,1,0.,24.0,0.,24.0,0.,24.0,0.,24.0
1981-08-30 10:20:10.840 ,2,1,0.,24.0,0.,24.0,1.,24.0,0.,24.0
1981-08-30 10:20:34.840 ,1,1,0.,24.0,0.,24.0,0.,24.0,0.,24.0
1981-08-30 10:20:58.840 ,0,1,0.,24.0,1.,24.0,0.,24.0,0.,24.0
1981-08-30 10:21:22.840 ,0,1,0.,24.0,0.,24.0,1.,24.0,0.,24.0
1981-08-30 10:21:46.840 ,1,1,0.,24.0,0.,24.0,0.,24.0,0.,24.0
1981-08-30 10:22:10.840 ,2,1,0.,24.0,0.,24.0,0.,24.0,0.,24.0
1981-08-30 10:22:34.840 ,3,1,0.,24.0,0.,24.0,1.,24.0,0.,24.0
1981-08-30 10:22:58.840 ,3,0,0.,24.0,0.,24.0,0.,24.0,0.,24.0
1981-08-30 10:23:22.840 ,4,1,0.,24.0,0.,24.0,0.,24.0,0.,24.0
1981-08-30 10:23:46.840 ,4,0,0.,24.0,0.,24.0,2.,24.0,0.,24.0
1981-08-30 10:24:10.840 ,5,1,0.,24.0,0.,24.0,0.,24.0,0.,24.0
1981-08-30 10:24:34.840 ,5,0,0.,24.0,0.,24.0,0.,24.0,0.,24.0
1981-08-30 10:24:58.840 ,6,1,0.,24.0,0.,24.0,0.,24.0,0.,24.0
1981-08-30 10:25:22.840 ,6,0,0.,24.0,0.,24.0,1.,24.0,0.,24.0
1981-08-30 10:25:46.840 ,7,1,10.,24.0,0.,24.0,0.,24.0,0.,24.0
1981-08-30 10:26:10.840 ,7,0,32.,24.0,0.,24.0,1.,24.0,0.,24.0
1981-08-30 10:26:34.840 ,7,1,32.,24.0,0.,24.0,0.,24.0,0.,24.0
1981-08-30 10:26:58.840 ,7,0,28.,24.0,0.,24.0,1.,24.0,0.,24.0
1981-08-30 10:27:22.840 ,6,1,42.,24.0,0.,24.0,0.,24.0,0.,24.0
1981-08-30 10:27:46.840 ,6,0,0.,24.0,0.,24.0,0.,24.0,0.,24.0
1981-08-30 10:28:10.840 ,5,1,0.,24.0,0.,24.0,0.,24.0,0.,24.0
1981-08-30 10:28:34.840 ,5,0,0.,24.0,0.,24.0,0.,24.0,0.,24.0
1981-08-30 10:28:58.840 ,4,1,0.,24.0,0.,24.0,0.,24.0,0.,24.0
1981-08-30 10:29:22.840 ,4,0,0.,24.0,0.,24.0,0.,24.0,0.,24.0
1981-08-30 10:29:46.840 ,3,1,0.,24.0,0.,24.0,0.,24.0,0.,24.0
1981-08-30 10:30:10.840 ,3,0,0.,24.0,0.,24.0,0.,24.0,0.,24.0
1981-08-30 10:30:34.840 ,2,1,0.,24.0,0.,24.0,1.,24.0,0.,24.0
1981-08-30 10:30:58.840 ,2,0,0.,24.0,0.,24.0,0.,24.0,0.,24.0
1981-08-30 10:31:22.840 ,1,1,0.,24.0,0.,24.0,1.,24.0,0.,24.0
1981-08-30 10:31:46.840 ,1,0,0.,24.0,0.,24.0,1.,24.0,0.,24.0
1981-08-30 10:32:10.840 ,0,1,0.,24.0,0.,24.0,0.,24.0,0.,24.0
1981-08-30 10:32:34.840 ,0,0,0.,24.0,0.,24.0,0.,24.0,0.,24.0
1981-08-30 10:32:58.840 ,0,1,0.,24.0,0.,24.0,0.,24.0,0.,24.0
1981-08-30 10:33:22.840 ,0,0,0.,24.0,0.,24.0,0.,24.0,0.,24.0
1981-08-30 10:33:46.840 ,1,1,0.,24.0,0.,24.0,0.,24.0,0.,24.0
1981-08-30 10:34:10.840 ,1,0,0.,24.0,0.,24.0,0.,24.0,0.,24.0
1981-08-30 10:34:34.840 ,2,1,0.,24.0,0.,24.0,1.,24.0,0.,24.0
1981-08-30 10:34:58.840 ,2,0,0.,24.0,0.,24.0,0.,24.0,0.,24.0
1981-08-30 10:35:22.840 ,3,1,0.,24.0,0.,24.0,1.,24.0,0.,24.0
1981-08-30 10:35:46.840 ,4,1,0.,24.0,0.,24.0,1.,24.0,0.,24.0
1981-08-30 10:36:10.840 ,5,1,0.,24.0,0.,24.0,1.,24.0,0.,24.0
1981-08-30 10:36:34.840 ,6,1,0.,24.0,0.,24.0,0.,24.0,0.,24.0
1981-08-30 10:36:58.840 ,7,1,7.,24.0,0.,24.0,1.,24.0,0.,24.0
1981-08-30 10:37:22.840 ,7,1,40.,24.0,0.,24.0,0.,24.0,0.,24.0
1981-08-30 10:37:46.840 ,6,1,20.,24.0,0.,24.0,0.,24.0,0.,24.0
1981-08-30 10:38:10.840 ,5,1,0.,24.0,0.,24.0,0.,24.0,0.,24.0
1981-08-30 10:38:34.840 ,4,1,0.,24.0,0.,24.0,0.,24.0,0.,24.0
1981-08-30 10:38:58.840 ,3,1,0.,24.0,0.,24.0,0.,24.0,0.,24.0
1981-08-30 10:39:22.840 ,2,1,0.,24.0,0.,24.0,0.,24.0,0.,24.0
1981-08-30 10:39:46.840 ,1,1,0.,24.0,0.,24.0,0.,24.0,0.,24.0
1981-08-30 10:40:10.840 ,0,1,0.,24.0,0.,24.0,0.,24.0,0.,24.0
1981-08-30 10:40:34.840 ,0,1,0.,24.0,0.,24.0,0.,24.0,0.,24.0
1981-08-30 10:40:58.840 ,1,1,0.,24.0,0.,24.0,1.,24.0,0.,24.0
1981-08-30 10:41:22.840 ,2,1,0.,24.0,0.,24.0,0.,24.0,0.,24.0
1981-08-30 10:41:46.840 ,3,1,0.,24.0,0.,24.0,0.,24.0,0.,24.0
1981-08-30 10:42:10.840 ,3,0,0.,24.0,0.,24.0,2.,24.0,0.,24.0
1981-08-30 10:42:34.840 ,4,1,0.,24.0,0.,24.0,1.,24.0,0.,24.0
1981-08-30 10:42:58.840 ,4,0,0.,24.0,0.,24.0,0.,24.0,0.,24.0
1981-08-30 10:43:22.840 ,5,1,0.,24.0,0.,24.0,1.,24.0,0.,24.0
1981-08-30 10:43:46.840 ,5,0,0.,24.0,0.,24.0,0.,24.0,0.,24.0
1981-08-30 10:44:10.840 ,6,1,0.,24.0,0.,24.0,0.,24.0,0.,24.0
1981-08-30 10:44:34.840 ,6,0,0.,24.0,0.,24.0,0.,24.0,0.,24.0
1981-08-30 10:44:58.840 ,7,1,4.,24.0,0.,24.0,0.,24.0,0.,24.0
1981-08-30 10:45:22.840 ,7,0,33.,24.0,0.,24.0,0.,24.0,0.,24.0
1981-08-30 10:45:46.840 ,7,1,31.,24.0,0.,24.0,1.,24.0,0.,24.0
1981-08-30 10:46:10.840 ,7,0,40.,24.0,0.,24.0,0.,24.0,0.,24.0
1981-08-30 10:46:34.840 ,6,1,29.,24.0,0.,24.0,0.,24.0,0.,24.0
1981-08-30 10:46:58.840 ,6,0,0.,24.0,0.,24.0,0.,24.0,0.,24.0
1981-08-30 10:47:22.840 ,5,1,0.,24.0,0.,24.0,1.,24.0,0.,24.0
1981-08-30 10:47:46.840 ,5,0,0.,24.0,0.,24.0,0.,24.0,0.,24.0
1981-08-30 10:48:10.840 ,4,1,0.,24.0,0.,24.0,1.,24.0,0.,24.0
1981-08-30 10:48:34.840 ,4,0,0.,24.0,0.,24.0,0.,24.0,0.,24.0
1981-08-30 10:48:58.840 ,3,1,0.,24.0,0.,24.0,3.,24.0,0.,24.0
1981-08-30 10:49:22.840 ,3,0,0.,24.0,0.,24.0,0.,24.0,0.,24.0
1981-08-30 10:49:46.840 ,2,1,0.,24.0,0.,24.0,0.,24.0,0.,24.0
1981-08-30 10:50:10.840 ,2,0,0.,24.0,1.,24.0,0.,24.0,0.,24.0
1981-08-30 10:50:35.440 ,1,1,0.,24.0,0.,24.0,1.,24.0,0.,24.0
1981-08-30 10:50:58.840 ,1,0,1.,24.0,0.,24.0,1.,24.0,0.,24.0
1981-08-30 10:51:22.840 ,0,1,0.,24.0,0.,24.0,0.,24.0,0.,24.0
1981-08-30 10:51:46.840 ,0,0,0.,24.0,0.,24.0,0.,24.0,0.,24.0
1981-08-30 10:52:10.840 ,0,1,0.,24.0,0.,24.0,0.,24.0,0.,24.0
1981-08-30 10:52:34.840 ,0,0,0.,24.0,0.,24.0,0.,24.0,0.,24.0
1981-08-30 10:52:58.840 ,1,1,0.,24.0,0.,24.0,1.,24.0,0.,24.0
1981-08-30 10:53:22.840 ,1,0,0.,24.0,0.,24.0,0.,24.0,0.,24.0
1981-08-30 10:53:46.840 ,2,1,0.,24.0,0.,24.0,0.,24.0,0.,24.0
1981-08-30 10:54:10.840 ,2,0,0.,24.0,0.,24.0,0.,24.0,0.,24.0
1981-08-30 10:54:34.840 ,3,1,1.,24.0,0.,24.0,0.,24.0,0.,24.0
1981-08-30 10:54:58.840 ,4,1,0.,24.0,0.,24.0,0.,24.0,0.,24.0
1981-08-30 10:55:22.840 ,5,1,1.,24.0,0.,24.0,1.,24.0,0.,24.0
1981-08-30 10:55:46.840 ,6,1,0.,24.0,0.,24.0,0.,24.0,0.,24.0
1981-08-30 10:56:10.840 ,7,1,8.,24.0,0.,24.0,1.,24.0,0.,24.0
1981-08-30 10:56:34.840 ,7,1,30.,24.0,0.,24.0,0.,24.0,0.,24.0
1981-08-30 10:56:58.840 ,6,1,18.,24.0,0.,24.0,0.,24.0,0.,24.0
1981-08-30 10:57:22.840 ,5,1,0.,24.0,0.,24.0,1.,24.0,0.,24.0
1981-08-30 10:57:46.840 ,4,1,0.,24.0,0.,24.0,3.,24.0,0.,24.0
1981-08-30 10:58:10.840 ,3,1,0.,24.0,0.,24.0,1.,24.0,0.,24.0
1981-08-30 10:58:34.840 ,2,1,0.,24.0,0.,24.0,0.,24.0,0.,24.0
1981-08-30 10:58:58.840 ,1,1,0.,24.0,0.,24.0,0.,24.0,0.,24.0
1981-08-30 10:59:22.840 ,0,1,0.,24.0,0.,24.0,0.,24.0,0.,24.0
1981-08-30 10:59:46.840 ,0,1,0.,24.0,0.,24.0,0.,24.0,0.,24.0
1981-08-30 11:00:10.840 ,1,1,0.,24.0,0.,24.0,1.,24.0,0.,24.0
1981-08-30 11:00:34.840 ,2,1,0.,24.0,0.,24.0,0.,24.0,0.,24.0
1981-08-30 11:00:58.840 ,3,1,0.,24.0,0.,24.0,0.,24.0,0.,24.0
1981-08-30 11:01:22.840 ,3,0,0.,24.0,0.,24.0,0.,24.0,0.,24.0
1981-08-30 11:01:46.840 ,4,1,0.,24.0,0.,24.0,1.,24.0,0.,24.0
1981-08-30 11:02:10.840 ,4,0,0.,24.0,0.,24.0,2.,24.0,0.,24.0
1981-08-30 11:02:34.840 ,5,1,0.,24.0,0.,24.0,0.,24.0,0.,24.0
1981-08-30 11:02:58.840 ,5,0,0.,24.0,0.,24.0,0.,24.0,0.,24.0
1981-08-30 11:03:22.840 ,6,1,0.,24.0,0.,24.0,0.,24.0,0.,24.0
1981-08-30 11:03:46.840 ,6,0,1.,24.0,0.,24.0,0.,24.0,0.,24.0
1981-08-30 11:04:10.840 ,7,1,5.,24.0,0.,24.0,2.,24.0,0.,24.0
1981-08-30 11:04:34.840 ,7,0,34.,24.0,0.,24.0,2.,24.0,0.,24.0
1981-08-30 11:04:58.840 ,7,1,28.,24.0,0.,24.0,0.,24.0,0.,24.0
1981-08-30 11:05:22.840 ,7,0,34.,24.0,0.,24.0,0.,24.0,0.,24.0
1981-08-30 11:05:46.840 ,6,1,25.,24.0,0.,24.0,2.,24.0,0.,24.0
1981-08-30 11:06:10.840 ,6,0,0.,24.0,0.,24.0,0.,24.0,0.,24.0
1981-08-30 11:06:34.840 ,5,1,0.,24.0,0.,24.0,0.,24.0,0.,24.0
1981-08-30 11:06:58.840 ,5,0,0.,24.0,0.,24.0,0.,24.0,0.,24.0
1981-08-30 11:07:22.840 ,4,1,0.,24.0,0.,24.0,0.,24.0,0.,24.0
1981-08-30 11:07:46.840 ,4,0,0.,24.0,0.,24.0,0.,24.0,0.,24.0
1981-08-30 11:08:10.840 ,3,1,1.,24.0,0.,24.0,0.,24.0,0.,24.0
1981-08-30 11:08:34.840 ,3,0,0.,24.0,0.,24.0,0.,24.0,0.,24.0
1981-08-30 11:08:58.840 ,2,1,0.,24.0,0.,24.0,1.,24.0,0.,24.0
1981-08-30 11:09:22.840 ,2,0,0.,24.0,0.,24.0,0.,24.0,0.,24.0
1981-08-30 11:09:46.840 ,1,1,0.,24.0,0.,24.0,0.,24.0,0.,24.0
1981-08-30 11:10:10.840 ,1,0,0.,24.0,0.,24.0,0.,24.0,0.,24.0
1981-08-30 11:10:34.840 ,0,1,0.,24.0,0.,24.0,0.,24.0,0.,24.0
1981-08-30 11:10:58.840 ,0,0,1.,24.0,0.,24.0,0.,24.0,0.,24.0
1981-08-30 11:11:22.840 ,0,1,0.,24.0,0.,24.0,0.,24.0,0.,24.0
1981-08-30 11:11:46.840 ,0,0,0.,24.0,0.,24.0,1.,24.0,0.,24.0
1981-08-30 11:12:10.840 ,1,1,0.,24.0,0.,24.0,0.,24.0,0.,24.0
1981-08-30 11:12:34.840 ,1,0,1.,24.0,0.,24.0,0.,24.0,0.,24.0
1981-08-30 11:12:58.840 ,2,1,0.,24.0,0.,24.0,0.,24.0,0.,24.0
1981-08-30 11:13:22.840 ,2,0,0.,24.0,0.,24.0,0.,24.0,0.,24.0
1981-08-30 11:13:46.840 ,3,1,0.,24.0,0.,24.0,0.,24.0,0.,24.0
1981-08-30 11:14:10.840 ,4,1,0.,24.0,0.,24.0,0.,24.0,0.,24.0
1981-08-30 11:14:34.840 ,5,1,0.,24.0,0.,24.0,0.,24.0,0.,24.0
1981-08-30 11:14:58.840 ,6,1,0.,24.0,0.,24.0,1.,24.0,0.,24.0
1981-08-30 11:15:22.840 ,7,1,4.,24.0,0.,24.0,0.,24.0,0.,24.0
1981-08-30 11:15:46.840 ,7,1,40.,24.0,0.,24.0,0.,24.0,0.,24.0
1981-08-30 11:16:10.840 ,6,1,13.,24.0,0.,24.0,0.,24.0,0.,24.0
1981-08-30 11:16:34.840 ,5,1,0.,24.0,0.,24.0,1.,24.0,0.,24.0
1981-08-30 11:16:58.840 ,4,1,0.,24.0,0.,24.0,0.,24.0,0.,24.0
1981-08-30 11:17:22.840 ,3,1,0.,24.0,0.,24.0,0.,24.0,0.,24.0
1981-08-30 11:17:46.840 ,2,1,1.,24.0,0.,24.0,0.,24.0,0.,24.0
1981-08-30 11:18:10.840 ,1,1,0.,24.0,0.,24.0,2.,24.0,0.,24.0
1981-08-30 11:18:34.840 ,0,1,0.,24.0,0.,24.0,0.,24.0,0.,24.0
1981-08-30 11:18:58.840 ,0,1,0.,24.0,0.,24.0,0.,24.0,0.,24.0
1981-08-30 11:19:22.840 ,1,1,0.,24.0,0.,24.0,0.,24.0,0.,24.0
1981-08-30 11:19:46.840 ,2,1,0.,24.0,1.,24.0,1.,24.0,0.,24.0
1981-08-30 11:20:10.840 ,3,1,0.,24.0,0.,24.0,0.,24.0,0.,24.0
1981-08-30 11:20:34.840 ,3,0,0.,24.0,0.,24.0,0.,24.0,0.,24.0
1981-08-30 11:20:58.840 ,4,1,0.,24.0,0.,24.0,1.,24.0,0.,24.0
1981-08-30 11:21:22.840 ,4,0,0.,24.0,0.,24.0,1.,24.0,0.,24.0
1981-08-30 11:21:46.840 ,5,1,0.,24.0,0.,24.0,1.,24.0,0.,24.0
1981-08-30 11:22:10.840 ,5,0,0.,24.0,0.,24.0,0.,24.0,0.,24.0
1981-08-30 11:22:34.840 ,6,1,0.,24.0,1.,24.0,0.,24.0,0.,24.0
1981-08-30 11:22:58.840 ,6,0,0.,24.0,0.,24.0,1.,24.0,0.,24.0
1981-08-30 11:23:22.840 ,7,1,12.,24.0,0.,24.0,0.,24.0,0.,24.0
1981-08-30 11:23:46.840 ,7,0,26.,24.0,0.,24.0,0.,24.0,0.,24.0
1981-08-30 11:24:10.840 ,7,1,30.,24.0,0.,24.0,0.,24.0,0.,24.0
1981-08-30 11:24:34.840 ,7,0,35.,24.0,0.,24.0,1.,24.0,0.,24.0
1981-08-30 11:24:58.840 ,6,1,30.,24.0,0.,24.0,0.,24.0,0.,24.0
1981-08-30 11:25:22.840 ,6,0,1.,24.0,0.,24.0,0.,24.0,0.,24.0
1981-08-30 11:25:46.840 ,5,1,0.,24.0,0.,24.0,0.,24.0,0.,24.0
1981-08-30 11:26:10.840 ,5,0,0.,24.0,0.,24.0,0.,24.0,0.,24.0
1981-08-30 11:26:34.840 ,4,1,0.,24.0,0.,24.0,1.,24.0,0.,24.0
1981-08-30 11:26:58.840 ,4,0,0.,24.0,0.,24.0,0.,24.0,0.,24.0
1981-08-30 11:27:22.840 ,3,1,0.,24.0,0.,24.0,0.,24.0,0.,24.0
1981-08-30 11:27:46.840 ,3,0,0.,24.0,0.,24.0,0.,24.0,0.,24.0
1981-08-30 11:28:10.840 ,2,1,0.,24.0,0.,24.0,1.,24.0,0.,24.0
1981-08-30 11:28:34.840 ,2,0,0.,24.0,0.,24.0,0.,24.0,0.,24.0
1981-08-30 11:28:58.840 ,1,1,0.,24.0,0.,24.0,1.,24.0,0.,24.0
1981-08-30 11:29:22.840 ,1,0,0.,24.0,0.,24.0,0.,24.0,0.,24.0
1981-08-30 11:29:46.840 ,0,1,0.,24.0,0.,24.0,0.,24.0,0.,24.0
1981-08-30 11:30:10.840 ,0,0,0.,24.0,0.,24.0,0.,24.0,0.,24.0
1981-08-30 11:30:34.840 ,0,1,0.,24.0,0.,24.0,0.,24.0,0.,24.0
1981-08-30 11:30:58.840 ,0,0,0.,24.0,0.,24.0,0.,24.0,0.,24.0
1981-08-30 11:31:22.840 ,1,1,0.,24.0,0.,24.0,1.,24.0,0.,24.0
1981-08-30 11:31:46.840 ,1,0,0.,24.0,0.,24.0,0.,24.0,0.,24.0
1981-08-30 11:32:10.840 ,2,1,0.,24.0,0.,24.0,1.,24.0,0.,24.0
1981-08-30 11:32:34.840 ,2,0,0.,24.0,0.,24.0,1.,24.0,0.,24.0
1981-08-30 11:32:58.840 ,3,1,0.,24.0,0.,24.0,0.,24.0,0.,24.0
1981-08-30 11:33:22.840 ,4,1,0.,24.0,0.,24.0,1.,24.0,0.,24.0
1981-08-30 11:33:46.840 ,5,1,0.,24.0,0.,24.0,0.,24.0,0.,24.0
1981-08-30 11:34:10.840 ,6,1,0.,24.0,0.,24.0,0.,24.0,0.,24.0
1981-08-30 11:34:34.840 ,7,1,7.,24.0,0.,24.0,0.,24.0,0.,24.0
1981-08-30 11:34:58.840 ,7,1,28.,24.0,0.,24.0,0.,24.0,0.,24.0
1981-08-30 11:35:22.840 ,6,1,25.,24.0,0.,24.0,1.,24.0,0.,24.0
1981-08-30 11:35:46.840 ,5,1,0.,24.0,0.,24.0,1.,24.0,0.,24.0
1981-08-30 11:36:10.840 ,4,1,1.,24.0,0.,24.0,1.,24.0,0.,24.0
1981-08-30 11:36:34.840 ,3,1,0.,24.0,0.,24.0,0.,24.0,0.,24.0
1981-08-30 11:36:58.840 ,2,1,0.,24.0,0.,24.0,0.,24.0,0.,24.0
1981-08-30 11:37:22.840 ,1,1,0.,24.0,0.,24.0,0.,24.0,0.,24.0